Airfield :
LOGIN :

Register | Disclaimer

   EN    FR    IT 

 










Legend :    VFR   Marginal VFR   IFR   Intensive IFR   Very Intensive IFR
Visi :
Ceiling :
>= 8 km
>= 3000ft
5 to 8 km
1000 to 3000 ft
1500m to 5 km
500 to 1000 ft
800 to 1500m
200 to 500 ft
< 800m
< 200 ft
Symbols :   Thunderstorms  Fog  Heavy snow  Heavy precipitations  Wind > 20 kt
SIGMETs :     Misc.  Thunderstorms  Icing  Turbulence  Mountain Waves  Volcanic Ashes







- Airport Elevation : 392 ft
- IATA code : CDG
- Download approach charts


LFPG - Paris-Aeroport Charles De Gaulle

CURRENT METAR :
  • 250600Z 03007KT 350V090 CAVOK 14/10 Q1024 NOSIG

EXPIRED METARs :
  • 250530Z VRB05KT CAVOK 14/10 Q1024 NOSIG
  • 250500Z VRB06KT CAVOK 13/10 Q1024 NOSIG
  • 250430Z 36006KT CAVOK 12/10 Q1024 NOSIG
  • 250400Z 36007KT 350V120 CAVOK 12/10 Q1024 NOSIG
  • 250330Z 34008KT CAVOK 12/10 Q1024 NOSIG

TAF TAF LFPG
Valid from the 25 at 06:00 until the 26 at 12:00 UTC


250500Z 2506/2612 01006KT CAVOK
TEMPO 2512/2518 03010G20KT TX25/2515Z TN14/2506Z
ATIS : +33 1 48 62 10 92
No reported NOTAMs for that airfield.



MET'MAP, your aeronautical weather chart ! - Copyright ORBIFLY December 2007 - Disclaimer

ORBIFLY MET'MAP TEAM :

Programming & Development : Alexandra Zaïnal
Concept & Development : Baudouin d'Aumeries
Co-Development & Prog : Marc-Olivier Méhu
Technical & hardware support : Manuel Goepfert

Contact : metmap@orbifly.com




SOURCES & CREDITS :

   NOAA